Home > Products > Valid Products > RWR

000
ASUS42 KFFC 311103
RWRGA
WEATHER ROUNDUP FOR GEORGIA
NATIONAL WEATHER SERVICE PEACHTREE CITY GA
700 AM EDT TUE MAY 31 2016

NOTE: "FAIR" INDICATES FEW OR NO CLOUDS BELOW 12,000 FEET WITH NO
SIGNIFICANT WEATHER AND/OR OBSTRUCTIONS TO VISIBILITY.

* = USE WITH CAUTION. THE STATIONS MARKED WITH AN ASTERISK MAY NOT
REPORT WEATHER SUCH AS PRECIPITATION, FOG, OR THUNDER AND ARE NOT
QUALITY CONTROLLED BY NWS.

THE REMARK "TC" DENOTES TEMPERATURE READING IN DEGREES CELSIUS.

GAZ001>058-311200-
NORTH GEORGIA

CITY           SKY/WX    TMP DP  RH WIND       PRES   REMARKS
ATLANTA        MOCLDY    72  61  68 NE7       29.96R
ATHENS         PTCLDY    68  65  90 NE3       29.95R
CHAMBLEE       CLEAR     67  62  84 CALM      29.96R
PEACHTREE CITY PTCLDY    62  60  93 CALM      29.96
ROME           CLEAR     63  61  93 NE3       29.96R
WEST ATLANTA   CLEAR     65  61  87 CALM      29.96R
GAINESVILLE    CLEAR     68  62  81 NE3       30.00R
CARTERSVILLE   CLEAR     61  60  97 CALM      29.97R


CITY           SKY/WX    TMP DP  RH WIND       PRES   REMARKS
DALTON*        CLOUDY    61  61 100 CALM      29.96R
LAWRENCEVILLE* CLEAR     66  63  88 CALM      29.97
MARIETTA       MOCLDY    67  63  86 N2        29.96R
CANTON*        CLEAR     59  55  88 CALM      29.98R
BLAIRSVILLE*     N/A    N/A N/A N/A MISG      30.02R
$$

GAZ059>098-102>109-311200-
CENTRAL GEORGIA

CITY           SKY/WX    TMP DP  RH WIND       PRES   REMARKS
AUGUSTA-BUSH   CLEAR     66  66 100 CALM      29.92R
AUGUSTA-DANIEL CLEAR     72  67  84 N3        29.94R
COLUMBUS       CLEAR     69  63  81 NW3       29.93R
MACON          CLEAR     65  63  93 W3        29.92R
ROBINS AFB     CLEAR     67  66  97 N1        29.92R


CITY           SKY/WX    TMP DP  RH WIND       PRES   REMARKS
LAGRANGE*      CLEAR     64  64 100 CALM      29.95R
SYLVANIA*      CLEAR     70  68  94 CALM      29.93R
MILLEDGEVILLE* CLEAR     68  64  88 CALM      29.94R
$$

GAZ099>101-110>166-311200-
SOUTH GEORGIA

CITY           SKY/WX    TMP DP  RH WIND       PRES   REMARKS
SAVANNAH       MOCLDY    71  68  90 N5        29.91R
VALDOSTA       CLEAR     67  66  97 CALM      29.93R FOG
ALMA           MOCLDY    69  68  96 CALM      29.92R
ST SIMONS      PTCLDY    72  70  93 W9        29.91R
FT STEWART     CLEAR     68  66  92 CALM      29.89R
ALBANY         CLEAR     68  64  87 CALM      29.94R
HUNTER AFB     PTCLDY    74  73  98 CALM      29.89R
MOODY AFB      CLEAR     72  67  84 SW3       29.91R
BRUNSWICK      MOCLDY    75  72  88 W6        29.93R


CITY           SKY/WX    TMP DP  RH WIND       PRES   REMARKS
BAINBRIDGE*    CLEAR     72  70  94 CALM      29.93R
MOULTRIE*      CLEAR     70  68  94 W3        29.93R
VIDALIA*       PTCLDY    70  64  83 CALM      29.92R
WAYCROSS*      MOCLDY    67  67 100 SW3       29.92R
DOUGLAS*       CLEAR     70  68  94 CALM      29.94R
$$






000
ASUS42 KFFC 310603
RWRGA
WEATHER ROUNDUP FOR GEORGIA
NATIONAL WEATHER SERVICE PEACHTREE CITY GA
200 AM EDT TUE MAY 31 2016

NOTE: "FAIR" INDICATES FEW OR NO CLOUDS BELOW 12,000 FEET WITH NO
SIGNIFICANT WEATHER AND/OR OBSTRUCTIONS TO VISIBILITY.

* = USE WITH CAUTION. THE STATIONS MARKED WITH AN ASTERISK MAY NOT
REPORT WEATHER SUCH AS PRECIPITATION, FOG, OR THUNDER AND ARE NOT
QUALITY CONTROLLED BY NWS.

THE REMARK "TC" DENOTES TEMPERATURE READING IN DEGREES CELSIUS.

GAZ001>058-310700-
NORTH GEORGIA

CITY           SKY/WX    TMP DP  RH WIND       PRES   REMARKS
ATLANTA        PTCLDY    76  59  55 NW8       29.94F
6HR MIN TEMP:  75; 6HR MAX TEMP:  87;

ATHENS         CLEAR     70  66  87 CALM      29.94F
6HR MIN TEMP:  70; 6HR MAX TEMP:  84;

CHAMBLEE       CLEAR     70  60  70 CALM      29.94F
6HR MIN TEMP:  70; 6HR MAX TEMP:  86;

ROME           CLEAR     66  63  90 CALM      29.94F
6HR MIN TEMP:  66; 6HR MAX TEMP:  81;

WEST ATLANTA   CLEAR     69  61  75 CALM      29.94F
6HR MIN TEMP:  68; 6HR MAX TEMP:  85;

GAINESVILLE    CLEAR     72  62  71 E6        29.98F
6HR MIN TEMP:  71; 6HR MAX TEMP:  85;

CARTERSVILLE   CLEAR     64  64 100 CALM      29.95F
6HR MIN TEMP:  63; 6HR MAX TEMP:  71;



CITY           SKY/WX    TMP DP  RH WIND       PRES   REMARKS
DALTON*        CLEAR     64  64 100 CALM      29.95F
CANTON*        CLEAR     68  55  64 CALM      29.97F
BLAIRSVILLE*     N/A    N/A N/A N/A MISG      30.02F
$$

GAZ059>098-102>109-310700-
CENTRAL GEORGIA

CITY           SKY/WX    TMP DP  RH WIND       PRES   REMARKS
AUGUSTA-BUSH   CLEAR     68  67  96 CALM      29.91S
6HR MIN TEMP:  67; 6HR MAX TEMP:  84;

AUGUSTA-DANIEL CLEAR     74  67  78 CALM      29.93S
6HR MIN TEMP:  74; 6HR MAX TEMP:  87;

COLUMBUS       CLEAR     73  63  70 CALM      29.92S
6HR MIN TEMP:  71; 6HR MAX TEMP:  88;

MACON          CLEAR     68  65  90 CALM      29.90F
6HR MIN TEMP:  68; 6HR MAX TEMP:  90;



CITY           SKY/WX    TMP DP  RH WIND       PRES   REMARKS
LAGRANGE*      CLEAR     68  67  98 CALM      29.94S
SYLVANIA*      CLEAR     72  70  92 CALM      29.91F
MILLEDGEVILLE* CLEAR     72  68  88 CALM      29.91F
$$

GAZ099>101-110>166-310700-
SOUTH GEORGIA

CITY           SKY/WX    TMP DP  RH WIND       PRES   REMARKS
SAVANNAH       CLEAR     71  68  90 NE3       29.90F
6HR MIN TEMP:  71; 6HR MAX TEMP:  85;

VALDOSTA       CLEAR     69  68  96 S3        29.93F
6HR MIN TEMP:  69; 6HR MAX TEMP:  82; 6HR PCP: TRACE;

ALMA           PTCLDY    72  66  81 CALM      29.91S
6HR MIN TEMP:  69; 6HR MAX TEMP:  88;

ST SIMONS      CLEAR     75  68  78 SW8       29.90S
6HR MIN TEMP:  75; 6HR MAX TEMP:  81;

ALBANY         CLEAR     73  64  73 CALM      29.93F
MOODY AFB      CLEAR     72  67  84 SW5       29.91F
BRUNSWICK      CLEAR     79  72  78 SW10      29.91S


CITY           SKY/WX    TMP DP  RH WIND       PRES   REMARKS
BAINBRIDGE*    PTCLDY    72  68  88 CALM      29.93F
MOULTRIE*      CLEAR     73  66  78 CALM      29.94F
VIDALIA*       CLOUDY    73  66  78 CALM      29.91F
WAYCROSS*      CLEAR     71  68  88 SW3       29.92S
DOUGLAS*       CLEAR     72  68  88 SW5       29.92F
$$






000
ASUS42 KFFC 310503
RWRGA
WEATHER ROUNDUP FOR GEORGIA
NATIONAL WEATHER SERVICE PEACHTREE CITY GA
100 AM EDT TUE MAY 31 2016

NOTE: "FAIR" INDICATES FEW OR NO CLOUDS BELOW 12,000 FEET WITH NO
SIGNIFICANT WEATHER AND/OR OBSTRUCTIONS TO VISIBILITY.

* = USE WITH CAUTION. THE STATIONS MARKED WITH AN ASTERISK MAY NOT
REPORT WEATHER SUCH AS PRECIPITATION, FOG, OR THUNDER AND ARE NOT
QUALITY CONTROLLED BY NWS.

THE REMARK "TC" DENOTES TEMPERATURE READING IN DEGREES CELSIUS.

GAZ001>058-310600-
NORTH GEORGIA

CITY           SKY/WX    TMP DP  RH WIND       PRES   REMARKS
ATLANTA        CLOUDY    77  61  57 NW7       29.95F
ATHENS         PTCLDY    72  65  78 N3        29.95S
CHAMBLEE       CLEAR     74  59  59 CALM      29.96S
ROME           CLEAR     68  64  87 CALM      29.95F
WEST ATLANTA   PTCLDY    74  59  59 CALM      29.95F
GAINESVILLE    CLEAR     72  62  71 E7        29.99F
CARTERSVILLE   CLEAR     64  63  96 CALM      29.96F


CITY           SKY/WX    TMP DP  RH WIND       PRES   REMARKS
DALTON*        CLEAR     66  66 100 CALM      29.97S
MARIETTA       PTCLDY    72  61  69 CALM      29.96S
CANTON*        CLEAR     68  55  64 CALM      29.99S
BLAIRSVILLE*     N/A    N/A N/A N/A MISG      30.03S
$$

GAZ059>098-102>109-310600-
CENTRAL GEORGIA

CITY           SKY/WX    TMP DP  RH WIND       PRES   REMARKS
AUGUSTA-BUSH   CLEAR     69  66  90 CALM      29.91F
AUGUSTA-DANIEL CLEAR     75  67  76 S5        29.93F
COLUMBUS       CLEAR     74  65  73 NE3       29.92F
MACON          CLEAR     70  66  87 NE3       29.92S
ROBINS AFB     CLEAR     71  69  94 CALM      29.91S


CITY           SKY/WX    TMP DP  RH WIND       PRES   REMARKS
LAGRANGE*      CLEAR     68  67  98 CALM      29.94F
SYLVANIA*      CLEAR     72  70  92 CALM      29.93S
MILLEDGEVILLE* CLEAR     72  68  88 CALM      29.92F
$$

GAZ099>101-110>166-310600-
SOUTH GEORGIA

CITY           SKY/WX    TMP DP  RH WIND       PRES   REMARKS
SAVANNAH       CLEAR     73  68  84 E3        29.91F
VALDOSTA       CLEAR     70  68  93 CALM      29.94F
ALMA           CLEAR     72  66  81 CALM      29.91F
ST SIMONS      CLEAR     77  72  84 SW13      29.90F
FT STEWART     CLEAR     73  69  87 CALM      29.88F
ALBANY         PTCLDY    75  65  70 SW3       29.95F
HUNTER AFB     CLEAR     75  73  93 CALM      29.88F
MOODY AFB      CLEAR     73  67  84 S3        29.93S
BRUNSWICK      CLEAR     81  75  83 SW9       29.91F


CITY           SKY/WX    TMP DP  RH WIND       PRES   REMARKS
BAINBRIDGE*    CLEAR     73  68  83 CALM      29.95S
MOULTRIE*      PTCLDY    77  66  69 W3        29.96S
VIDALIA*       CLEAR     72  66  83 CALM      29.92S
WAYCROSS*      CLEAR     72  67  85 SW5       29.93S
DOUGLAS*       CLEAR     73  66  78 SW3       29.94S
$$






000
ASUS42 KFFC 310003
RWRGA
WEATHER ROUNDUP FOR GEORGIA
NATIONAL WEATHER SERVICE PEACHTREE CITY GA
800 PM EDT MON MAY 30 2016

NOTE: "FAIR" INDICATES FEW OR NO CLOUDS BELOW 12,000 FEET WITH NO
SIGNIFICANT WEATHER AND/OR OBSTRUCTIONS TO VISIBILITY.

* = USE WITH CAUTION. THE STATIONS MARKED WITH AN ASTERISK MAY NOT
REPORT WEATHER SUCH AS PRECIPITATION, FOG, OR THUNDER AND ARE NOT
QUALITY CONTROLLED BY NWS.

THE REMARK "TC" DENOTES TEMPERATURE READING IN DEGREES CELSIUS.

GAZ001>058-310100-
NORTH GEORGIA

CITY           SKY/WX    TMP DP  RH WIND       PRES   REMARKS
ATLANTA        MOCLDY    87  58  37 N10       29.93R
6HR MIN TEMP:  87; 6HR MAX TEMP:  93;

ATHENS         PTCLDY    84  64  50 NE6       29.92R
6HR MIN TEMP:  83; 6HR MAX TEMP:  93;

CHAMBLEE       PTCLDY    86  59  39 W7        29.93R
6HR MIN TEMP:  86; 6HR MAX TEMP:  93;

ROME           CLOUDY    80  61  52 CALM      29.93R
6HR MIN TEMP:  80; 6HR MAX TEMP:  94;

WEST ATLANTA   CLEAR     85  61  44 NW6       29.92S
6HR MIN TEMP:  85; 6HR MAX TEMP:  91;

GAINESVILLE    CLEAR     85  60  42 W5        29.96R
6HR MIN TEMP:  85; 6HR MAX TEMP:  90;

CARTERSVILLE   CLOUDY    70  69  97 CALM      29.94F
6HR MIN TEMP:  70; 6HR MAX TEMP:  92; 6HR PCP:  0.13;



CITY           SKY/WX    TMP DP  RH WIND       PRES   REMARKS
DALTON*        PTCLDY    79  64  61 CALM      29.94R
LAWRENCEVILLE* CLEAR     84  63  48 CALM      29.94S
KENNESAW*      PTCLDY    79  59  50 NW5       29.91R
CANTON*        CLOUDY    81  48  32 W5        29.97R
BLAIRSVILLE*     N/A    N/A N/A N/A MISG      29.99R
$$

GAZ059>098-102>109-310100-
CENTRAL GEORGIA

CITY           SKY/WX    TMP DP  RH WIND       PRES   REMARKS
AUGUSTA-BUSH   CLEAR     84  64  50 N6        29.88S
6HR MIN TEMP:  84; 6HR MAX TEMP:  89;

AUGUSTA-DANIEL CLEAR     87  63  44 N5        29.91R
6HR MIN TEMP:  86; 6HR MAX TEMP:  90;

COLUMBUS       CLEAR     88  61  40 W3        29.90S
6HR MIN TEMP:  83; 6HR MAX TEMP:  94;

MACON          CLEAR     90  61  37 CALM      29.90R HX  90
6HR MIN TEMP:  88; 6HR MAX TEMP:  93;



CITY           SKY/WX    TMP DP  RH WIND       PRES   REMARKS
LAGRANGE*      CLEAR     90  63  40 NW3       29.92R HX  90
SYLVANIA*      CLEAR     86  69  55 NW5       29.89R HX  90
MILLEDGEVILLE* PTCLDY    81  68  65 CALM      29.89S
$$

GAZ099>101-110>166-310100-
SOUTH GEORGIA

CITY           SKY/WX    TMP DP  RH WIND       PRES   REMARKS
SAVANNAH       PTCLDY    85  64  49 NW8       29.90R
6HR MIN TEMP:  85; 6HR MAX TEMP:  88;

VALDOSTA       PTCLDY    82  60  47 CALM      29.92R
6HR MIN TEMP:  82; 6HR MAX TEMP:  93;

ALMA           CLEAR     88  61  40 N5        29.90R
6HR MIN TEMP:  88; 6HR MAX TEMP:  93;

ST SIMONS      CLEAR     81  73  76 VRB5      29.90R
6HR MIN TEMP:  81; 6HR MAX TEMP:  93;

ALBANY         CLEAR     89  60  37 NW6       29.92R
BRUNSWICK      CLEAR     91  64  40 CALM      29.90R HX  93


CITY           SKY/WX    TMP DP  RH WIND       PRES   REMARKS
BAINBRIDGE*    CLOUDY    82  61  47 NW7       29.92S
MOULTRIE*      CLEAR     90  59  35 CALM      29.92R
VIDALIA*       CLEAR     88  61  40 NW7       29.91R
WAYCROSS*      CLEAR     87  63  44 CALM      29.90R
DOUGLAS*       CLEAR     90  57  33 CALM      29.92S
$$






000
ASUS42 KFFC 302303
RWRGA
WEATHER ROUNDUP FOR GEORGIA
NATIONAL WEATHER SERVICE PEACHTREE CITY GA
700 PM EDT MON MAY 30 2016

NOTE: "FAIR" INDICATES FEW OR NO CLOUDS BELOW 12,000 FEET WITH NO
SIGNIFICANT WEATHER AND/OR OBSTRUCTIONS TO VISIBILITY.

* = USE WITH CAUTION. THE STATIONS MARKED WITH AN ASTERISK MAY NOT
REPORT WEATHER SUCH AS PRECIPITATION, FOG, OR THUNDER AND ARE NOT
QUALITY CONTROLLED BY NWS.

THE REMARK "TC" DENOTES TEMPERATURE READING IN DEGREES CELSIUS.

GAZ001>058-310000-
NORTH GEORGIA

CITY           SKY/WX    TMP DP  RH WIND       PRES   REMARKS
ATLANTA        MOSUNNY   89  56  32 N12       29.92F
ATHENS         SUNNY     87  63  44 NW3       29.91F
CHAMBLEE       SUNNY     89  56  32 N6        29.92F
ROME           PTSUNNY   81  59  47 SE7       29.92S
WEST ATLANTA   SUNNY     88  58  36 NW7       29.92F
GAINESVILLE    SUNNY     87  60  40 W7        29.95F
CARTERSVILLE   TSTM      75  65  70 N21G36    29.98R


CITY           SKY/WX    TMP DP  RH WIND       PRES   REMARKS
DALTON*        MOSUNNY   77  64  65 CALM      29.93F
LAWRENCEVILLE* MOSUNNY   88  64  45 N6        29.94F
KENNESAW*      MOSUNNY   86  59  39 NW7       29.88S
CANTON*        MOSUNNY   84  48  28 NW7       29.95F
BLAIRSVILLE*     N/A    N/A N/A N/A MISG      29.99S
$$

GAZ059>098-102>109-310000-
CENTRAL GEORGIA

CITY           SKY/WX    TMP DP  RH WIND       PRES   REMARKS
AUGUSTA-BUSH   SUNNY     88  63  43 N7        29.88S
AUGUSTA-DANIEL SUNNY     89  63  41 N7        29.90F HX  90
COLUMBUS       MOSUNNY   87  58  37 W7        29.90F
MACON          SUNNY     91  62  37 N7        29.89F HX  91
ROBINS AFB     SUNNY     91  68  47 NE3       29.88F HX  94


CITY           SKY/WX    TMP DP  RH WIND       PRES   REMARKS
LAGRANGE*      MOSUNNY   92  62  35 N7        29.92F HX  92
SYLVANIA*      SUNNY     87  67  50 NW8       29.88F HX  90
MILLEDGEVILLE* SUNNY     88  64  45 CALM      29.89F
$$

GAZ099>101-110>166-310000-
SOUTH GEORGIA

CITY           SKY/WX    TMP DP  RH WIND       PRES   REMARKS
SAVANNAH       MOSUNNY   86  66  51 NW9       29.88S
VALDOSTA       MOSUNNY   88  64  44 CALM      29.90R
ALMA           SUNNY     90  60  36 NW7       29.89S
ST SIMONS      SUNNY     83  73  72 SE8       29.88R
FT STEWART     SUNNY     88  64  44 NW7       29.86R
ALBANY         SUNNY     92  59  33 W7        29.91S HX  91
HUNTER AFB     SUNNY     86  70  58 NW5       29.86R HX  91
BRUNSWICK      SUNNY     95  63  34 NW5       29.89R HX  96


CITY           SKY/WX    TMP DP  RH WIND       PRES   REMARKS
BAINBRIDGE*    CLOUDY    84  63  48 W7        29.90S
MOULTRIE*      SUNNY     91  59  33 W6        29.91R HX  90
VIDALIA*       MOSUNNY   90  61  37 NW9       29.89S
WAYCROSS*      SUNNY     91  62  37 N7        29.89R HX  91
DOUGLAS*       SUNNY     91  54  27 N6        29.92R
$$






000
ASUS42 KFFC 301703
RWRGA
WEATHER ROUNDUP FOR GEORGIA
NATIONAL WEATHER SERVICE PEACHTREE CITY GA
100 PM EDT MON MAY 30 2016

NOTE: "FAIR" INDICATES FEW OR NO CLOUDS BELOW 12,000 FEET WITH NO
SIGNIFICANT WEATHER AND/OR OBSTRUCTIONS TO VISIBILITY.

* = USE WITH CAUTION. THE STATIONS MARKED WITH AN ASTERISK MAY NOT
REPORT WEATHER SUCH AS PRECIPITATION, FOG, OR THUNDER AND ARE NOT
QUALITY CONTROLLED BY NWS.

THE REMARK "TC" DENOTES TEMPERATURE READING IN DEGREES CELSIUS.

GAZ001>058-301800-
NORTH GEORGIA

CITY           SKY/WX    TMP DP  RH WIND       PRES   REMARKS
ATLANTA        PTSUNNY   86  63  45 VRB3      30.02F
ATHENS         SUNNY     87  64  46 VRB3      30.01F
CHAMBLEE       MOSUNNY   88  62  41 NW7       30.02F
ROME           MOSUNNY   87  63  44 VRB5      30.01F
WEST ATLANTA   MOSUNNY   87  64  46 N8        30.01F
GAINESVILLE    SUNNY     84  62  47 VRB3      30.04F
CARTERSVILLE   CLOUDY    87  64  46 CALM      30.02F


CITY           SKY/WX    TMP DP  RH WIND       PRES   REMARKS
DALTON*        MOSUNNY   86  64  48 NE3       30.02F
LAWRENCEVILLE* MOSUNNY   86  64  48 NE6       30.03F
MARIETTA       PTSUNNY   86  64  47 N5        30.02F
KENNESAW*      MOSUNNY   84  63  48 NW6       29.97F
CANTON*        CLOUDY    86  52  30 CALM      30.04F
BLAIRSVILLE*     N/A    N/A N/A N/A MISG      30.07F
$$

GAZ059>098-102>109-301800-
CENTRAL GEORGIA

CITY           SKY/WX    TMP DP  RH WIND       PRES   REMARKS
AUGUSTA-BUSH   PTSUNNY   82  67  60 N13       29.96F
AUGUSTA-DANIEL MOSUNNY   84  65  52 NW13G18   29.98F
COLUMBUS       MOSUNNY   89  63  41 CALM      30.00F HX  90
MACON          SUNNY     87  64  46 N8        30.00F
ROBINS AFB     SUNNY     87  66  50 N7        29.99F


CITY           SKY/WX    TMP DP  RH WIND       PRES   REMARKS
LAGRANGE*      PTSUNNY   87  69  53 NE5       30.02F HX  91
SYLVANIA*      CLOUDY    82  70  68 NW14      29.98F
MILLEDGEVILLE* SUNNY     82  63  51 CALM      29.99F
$$

GAZ099>101-110>166-301800-
SOUTH GEORGIA

CITY           SKY/WX    TMP DP  RH WIND       PRES   REMARKS
SAVANNAH       PTSUNNY   84  68  58 NW12      29.95F
VALDOSTA       MOSUNNY   89  66  46 VRB3      29.98F HX  91
ALMA           SUNNY     88  64  44 N7        29.98F
ST SIMONS      PTSUNNY   88  65  46 W8        29.96F HX  90
FT STEWART     MOSUNNY   86  64  47 NW17G23   29.94F
ALBANY         SUNNY     91  64  40 VRB7      30.01F HX  92
HUNTER AFB     MOSUNNY   84  72  67 W10       29.92F HX  90
MOODY AFB      PTSUNNY   89  65  44 N6        29.98F HX  91
BRUNSWICK      MOSUNNY   91  68  46 W9        29.97F HX  95


CITY           SKY/WX    TMP DP  RH WIND       PRES   REMARKS
BAINBRIDGE*    SUNNY     91  63  38 N6        30.00S HX  92
MOULTRIE*      SUNNY     90  64  43 N7        30.00F HX  91
VIDALIA*       MOSUNNY   86  64  48 N8        29.99F
WAYCROSS*      SUNNY     88  66  47 NW8       29.98F HX  91
DOUGLAS*       SUNNY     90  63  40 W8        30.00F HX  90
$$






000
ASUS42 KFFC 301303
RWRGA
WEATHER ROUNDUP FOR GEORGIA
NATIONAL WEATHER SERVICE PEACHTREE CITY GA
900 AM EDT MON MAY 30 2016

NOTE: "FAIR" INDICATES FEW OR NO CLOUDS BELOW 12,000 FEET WITH NO
SIGNIFICANT WEATHER AND/OR OBSTRUCTIONS TO VISIBILITY.

* = USE WITH CAUTION. THE STATIONS MARKED WITH AN ASTERISK MAY NOT
REPORT WEATHER SUCH AS PRECIPITATION, FOG, OR THUNDER AND ARE NOT
QUALITY CONTROLLED BY NWS.

THE REMARK "TC" DENOTES TEMPERATURE READING IN DEGREES CELSIUS.

GAZ001>058-301400-
NORTH GEORGIA

CITY           SKY/WX    TMP DP  RH WIND       PRES   REMARKS
ATLANTA        MOSUNNY   76  59  55 VRB5      30.05S
ATHENS         SUNNY     73  64  73 N5        30.05R
CHAMBLEE       SUNNY     75  61  61 VRB5      30.05S
ROME           SUNNY     72  65  78 CALM      30.04R
WEST ATLANTA   SUNNY     74  61  63 SW5       30.05R
GAINESVILLE    SUNNY     73  64  73 NW7       30.08R
CARTERSVILLE   SUNNY     72  66  81 CALM      30.06R


CITY           SKY/WX    TMP DP  RH WIND       PRES   REMARKS
DALTON*        SUNNY     70  68  94 CALM      30.05R
LAWRENCEVILLE* SUNNY     72  64  78 W7        30.06R
MARIETTA       PTSUNNY   74  62  65 SW5       30.05S
KENNESAW*      MOSUNNY   73  63  68 SW5       30.03S
CANTON*        SUNNY     70  64  83 CALM      30.07R
BLAIRSVILLE*     N/A    N/A N/A N/A MISG      30.10S
$$

GAZ059>098-102>109-301400-
CENTRAL GEORGIA

CITY           SKY/WX    TMP DP  RH WIND       PRES   REMARKS
AUGUSTA-BUSH   PTSUNNY   71  64  78 N7        30.00R
AUGUSTA-DANIEL SUNNY     71  62  73 N8        30.01R
COLUMBUS       SUNNY     75  64  68 E5        30.03R
MACON          SUNNY     76  61  59 N6        30.03R
ROBINS AFB     SUNNY     74  63  67 N5        30.03R


CITY           SKY/WX    TMP DP  RH WIND       PRES   REMARKS
LAGRANGE*      SUNNY     76  71  84 CALM      30.05R
SYLVANIA*      CLOUDY    71  66  84 N8        30.00S
MILLEDGEVILLE* SUNNY     72  63  73 NE3       30.03S
$$

GAZ099>101-110>166-301400-
SOUTH GEORGIA

CITY           SKY/WX    TMP DP  RH WIND       PRES   REMARKS
SAVANNAH       PTSUNNY   73  64  73 NW8       29.97S
VALDOSTA       SUNNY     78  68  71 CALM      30.01R
ALMA           SUNNY     76  62  62 VRB5      30.02R
ST SIMONS      CLOUDY    74  63  68 NW8       29.99S
FT STEWART     CLOUDY    71  63  73 NW2       29.97R
ALBANY         SUNNY     78  67  68 CALM      30.03S
HUNTER AFB     SUNNY     73  68  84 W7        29.95S
MOODY AFB      SUNNY     77  64  65 NE3       30.01R
BRUNSWICK      CLOUDY    77  66  69 W3        30.00S


CITY           SKY/WX    TMP DP  RH WIND       PRES   REMARKS
BAINBRIDGE*    SUNNY     77  70  78 CALM      30.01S
MOULTRIE*      SUNNY     77  66  69 NW5       30.02S
VIDALIA*       CLOUDY    72  63  73 N5        30.02R
WAYCROSS*      SUNNY     76  64  67 CALM      30.01R
DOUGLAS*       SUNNY     79  61  53 N5        30.03R
$$






000
ASUS42 KFFC 301203
RWRGA
WEATHER ROUNDUP FOR GEORGIA
NATIONAL WEATHER SERVICE PEACHTREE CITY GA
800 AM EDT MON MAY 30 2016

NOTE: "FAIR" INDICATES FEW OR NO CLOUDS BELOW 12,000 FEET WITH NO
SIGNIFICANT WEATHER AND/OR OBSTRUCTIONS TO VISIBILITY.

* = USE WITH CAUTION. THE STATIONS MARKED WITH AN ASTERISK MAY NOT
REPORT WEATHER SUCH AS PRECIPITATION, FOG, OR THUNDER AND ARE NOT
QUALITY CONTROLLED BY NWS.

THE REMARK "TC" DENOTES TEMPERATURE READING IN DEGREES CELSIUS.

GAZ001>058-301300-
NORTH GEORGIA

CITY           SKY/WX    TMP DP  RH WIND       PRES   REMARKS
ATLANTA        MOSUNNY   71  61  70 SW5       30.05R
6HR MIN TEMP:  67; 6HR MAX TEMP:  71;

ATHENS         SUNNY     68  63  84 CALM      30.04R
6HR MIN TEMP:  61; 6HR MAX TEMP:  68;

CHAMBLEE       SUNNY     72  63  73 CALM      30.05R
6HR MIN TEMP:  64; 6HR MAX TEMP:  72;

ROME           SUNNY     69  63  81 CALM      30.03S
6HR MIN TEMP:  64; 6HR MAX TEMP:  69;

WEST ATLANTA   SUNNY     69  63  81 CALM      30.04R
6HR MIN TEMP:  63; 6HR MAX TEMP:  69;

GAINESVILLE    SUNNY     68  64  87 NW7       30.07R
6HR MIN TEMP:  62; 6HR MAX TEMP:  68;

CARTERSVILLE   SUNNY     68  65  90 CALM      30.05R
6HR MIN TEMP:  60; 6HR MAX TEMP:  68;



CITY           SKY/WX    TMP DP  RH WIND       PRES   REMARKS
DALTON*        SUNNY     64  64 100 CALM      30.04S
LAWRENCEVILLE* SUNNY     66  64  94 CALM      30.05R
MARIETTA       MOSUNNY   70  65  85 CALM      30.05R
KENNESAW*      MOSUNNY   68  63  83 CALM      30.03S
CANTON*        MOSUNNY   63  61  94 CALM      30.06S
BLAIRSVILLE*   FOG      N/A N/A N/A MISG      30.09S VSB 1/2
$$

GAZ059>098-102>109-301300-
CENTRAL GEORGIA

CITY           SKY/WX    TMP DP  RH WIND       PRES   REMARKS
AUGUSTA-BUSH   PTSUNNY   69  64  84 N8        29.99R
6HR MIN TEMP:  64; 6HR MAX TEMP:  69; 6HR PCP: TRACE;

AUGUSTA-DANIEL PTSUNNY   69  62  78 N8        30.00S
6HR MIN TEMP:  67; 6HR MAX TEMP:  70; 6HR PCP:  0.03;

COLUMBUS       SUNNY     72  64  76 CALM      30.02R
6HR MIN TEMP:  68; 6HR MAX TEMP:  74;

MACON          SUNNY     69  64  84 CALM      30.02R
6HR MIN TEMP:  63; 6HR MAX TEMP:  69;

ROBINS AFB     MOSUNNY   68  65  89 NW3       30.01S


CITY           SKY/WX    TMP DP  RH WIND       PRES   REMARKS
LAGRANGE*      SUNNY     70  69  97 CALM      30.04S
SYLVANIA*      CLOUDY    69  65  89 NW6       29.99S
MILLEDGEVILLE* SUNNY     64  63  94 CALM      30.02S
$$

GAZ099>101-110>166-301300-
SOUTH GEORGIA

CITY           SKY/WX    TMP DP  RH WIND       PRES   REMARKS
SAVANNAH       LGT RAIN  69  64  84 NW9       29.97S
6HR MIN TEMP:  67; 6HR MAX TEMP:  70; 6HR PCP: TRACE;

VALDOSTA       PTSUNNY   72  69  90 CALM      30.00R
6HR MIN TEMP:  69; 6HR MAX TEMP:  72; 6HR PCP: TRACE;

ALMA           SUNNY     71  63  75 N6        30.00S
6HR MIN TEMP:  64; 6HR MAX TEMP:  71;

ST SIMONS      CLOUDY    73  64  73 W6        29.99R
6HR MIN TEMP:  72; 6HR MAX TEMP:  75;

FT STEWART     CLOUDY    70  62  75 CALM      29.96S
ALBANY         SUNNY     71  67  87 CALM      30.03R
HUNTER AFB     CLOUDY    69  67  91 NW6       29.95R
MOODY AFB      MOSUNNY   72  66  80 N3        29.99S
BRUNSWICK      CLOUDY    75  64  69 W5        30.00R


CITY           SKY/WX    TMP DP  RH WIND       PRES   REMARKS
BAINBRIDGE*    SUNNY     72  68  88 CALM      30.01R
MOULTRIE*      SUNNY     72  68  88 CALM      30.02R
VIDALIA*       CLOUDY    70  61  73 N6        30.01R
WAYCROSS*      SUNNY     71  65  80 CALM      30.01R
DOUGLAS*       MOSUNNY   73  63  68 NE6       30.02S
$$






    US Dept of Commerce
    National Oceanic and Atmospheric Administration
    National Weather Service
    1325 East West Highway
    Silver Spring, MD 20910
    Page Author: NWS Internet Services Team
Disclaimer
Information Quality
Credits
Glossary
Privacy Policy
Freedom of Information Act (FOIA)
About Us
Career Opportunities